Location: Unspecified
(0.0000°N, 0.0000°E)
Time: 19:23:00
(UTC+01:00)

ADEOS II - Visible Passes

Search period start: 29 January 2015 00:00
Search period end: 08 February 2015 00:00
Orbit: 801 x 803 km, 98.3° (Epoch: 29 January)

Date Brightness Start Highest point End Pass type
(mag) Time Alt. Az. Time Alt. Az. Time Alt. Az.
29 Jan 5.1 05:19:43 10° ENE 05:22:23 15° E 05:25:25 10° SE visible
29 Jan 5.7 19:36:50 10° SW 19:39:00 12° W 19:40:44 10° W visible
30 Jan 2.0 06:30:46 10° N 06:35:59 71° WNW 06:41:14 10° SSW visible
31 Jan 2.8 06:04:49 10° NNE 06:09:56 56° ESE 06:15:06 10° S visible
01 Feb 4.2 05:39:32 10° NE 05:43:51 27° E 05:48:18 10° SSE visible
02 Feb 5.2 05:15:33 10° ENE 05:17:42 13° E 05:20:15 10° SE visible
02 Feb 5.6 19:31:33 10° SW 19:34:18 14° W 19:36:39 10° WNW visible
03 Feb 2.0 06:26:04 10° N 06:31:19 80° W 06:36:35 10° SSW visible
04 Feb 3.1 06:00:12 10° NNE 06:05:14 50° ESE 06:10:21 10° S visible
05 Feb 4.4 05:35:02 10° NE 05:39:09 24° E 05:43:25 10° SSE visible
06 Feb 5.3 05:11:33 10° E 05:12:59 11° E 05:14:52 10° ESE visible
07 Feb 2.1 06:21:21 10° NNE 06:26:36 89° WNW 06:31:54 10° SSW visible
